VAXJO current weather conditions

sailwx.info

Wind from 270 at 11 knots

Air temperature 2.0° C
Visibility: greater than 5.4 NM
Dewpoint -0.0° C

Last reported at 2015-Mar-03 06:50 UTC.
Time now 2015-Mar-03 07:24 UTC

Location: N 56°51' E 014°50'.
View on Google Maps.

See reports from other nearby stations

  
Tides and Currents Weather Stations Pressure Air Temp Water Temp Dewpoint Dewpoint Depression Visibility Wind Speed Wind Dir Waves Ship Positions
date/time (UTC)wind fromknots sea level pressurealtimeterstation pressurevisibilityair tempwater tempwave heightnotes
2015-Mar-03 06:50 270 11 5.4 2.0
2015-Mar-03 06:20 280 10 5.4 2.0
2015-Mar-03 05:50 280 11 5.4 2.0
2015-Mar-03 05:20 270 10 5.4 2.0
2015-Mar-03 04:50 270 9 5.4 2.0
2015-Mar-03 04:20 270 9 5.4 2.0
2015-Mar-03 03:50 270 10 5.4 2.0
2015-Mar-03 03:20 270 9 4.9 2.0
2015-Mar-03 02:50 270 7 1.7 1.0 Light rain.
2015-Mar-03 02:20 270 8 2.2 1.0 Light drizzle.
2015-Mar-03 01:50 270 9 3.2 1.0 Light rain.
2015-Mar-03 01:20 270 9 5.4 1.0 Light drizzle.
2015-Mar-03 00:50 270 8 4.3 1.0 Light rain.
2015-Mar-03 00:20 270 8 5.4 1.0 Light snow.
2015-Mar-02 23:53 260 8 5.4 1.0 Light snow.
2015-Mar-02 23:50 260 8 5.4 1.0 Precipitation.
2015-Mar-02 23:25 260 7 5.4 1.0 Light snow.
2015-Mar-02 23:20 270 6 4.3 1.0 Precipitation.
2015-Mar-02 22:50 270 5 1.4 1.0 Snow.
2015-Mar-02 22:20 270 4 1.0 1.0 Snow.
2015-Mar-02 21:50 260 5 0.7 1.0 Snow.
2015-Mar-02 21:20 260 5 1.0 1.0 Snow.
2015-Mar-02 20:50 260 5 1.0 1.0 Snow.
2015-Mar-02 20:20 260 5 1.1 1.0 Light snow.
2015-Mar-02 19:50 250 5 1.2 1.0 Snow.
2015-Mar-02 19:20 240 5 0.8-0.0 Snow.
2015-Mar-02 18:50 230 4 0.8-0.0 Snow.
2015-Mar-02 18:20 220 4 0.8-0.0 Snow.
2015-Mar-02 17:50 240 2 0.8-0.0 Light snow.
2015-Mar-02 17:20 0.6-0.0 Snow rain.
2015-Mar-02 16:50 0.5-0.0 Light snow.
2015-Mar-02 16:20 270 1 0.5-0.0 Light snow.
2015-Mar-02 15:50 0.5 1.0 Light snow.
2015-Mar-02 15:20 0.5 1.0 Snow.
2015-Mar-02 14:50 170 3 2.1 2.0 Rain snow.
2015-Mar-02 14:20 150 7 2.7 3.0 Rain snow.
2015-Mar-02 13:50 090 4 5.4 4.0 Light rain.
2015-Mar-02 13:20 070 3 3.2 4.0 Rain.
2015-Mar-02 12:50 100 5 4.3 4.0 Light rain.
2015-Mar-02 12:20 110 7 5.4 5.0 Light drizzle.
2015-Mar-02 11:50 110 7 5.4 5.0
2015-Mar-02 11:20 140 7 5.4 6.0
2015-Mar-02 10:50 140 7 5.4 6.0
2015-Mar-02 10:20 120 7 5.4 5.0
2015-Mar-02 09:50 130 7 5.4 4.0
2015-Mar-02 09:20 140 5 5.4 3.0
2015-Mar-02 08:50 160 6 5.4 3.0
2015-Mar-02 08:20 150 8 5.4 3.0
2015-Mar-02 07:50 150 7 5.4 2.0
2015-Mar-02 07:20 160 7 5.4 3.0
2015-Mar-02 06:50 160 6 5.4 2.0
2015-Mar-02 06:20 160 5 5.4 2.0
2015-Mar-02 05:50 180 8 5.4 2.0
2015-Mar-02 05:20 190 9 5.4 3.0
2015-Mar-02 04:50 190 10 5.4 3.0
2015-Mar-02 04:20 190 9 5.4 3.0
2015-Mar-02 03:50 190 10 5.4 3.0
2015-Mar-02 03:20 190 8 5.4 3.0
2015-Mar-02 02:50 190 10 5.4 3.0
2015-Mar-02 02:20 190 9 5.4 3.0
2015-Mar-02 01:50 190 10 5.4 3.0
2015-Mar-02 01:20 190 11 5.4 3.0
2015-Mar-02 00:50 180 10 5.4 3.0
2015-Mar-02 00:20 190 10 5.4 3.0
2015-Mar-01 23:50 200 10 5.4 3.0
2015-Mar-01 23:20 200 10 2.7 3.0 Light drizzle.
2015-Mar-01 22:50 190 10 5.4 3.0
2015-Mar-01 22:20 180 10 5.4 4.0
2015-Mar-01 21:50 180 12 4.9 4.0 Mist.
2015-Mar-01 21:20 180 11 4.9 3.0 Mist.
2015-Mar-01 20:50 190 10 3.8 3.0 Mist.
2015-Mar-01 20:20 190 12 3.8 3.0 Mist.
2015-Mar-01 19:53 180 11 2.7 3.0 Mist.
2015-Mar-01 19:50 180 11 2.7 3.0 Mist.
2015-Mar-01 19:20 170 10 1.6 2.0 Mist.
2015-Mar-01 18:50 170 9 0.8 2.0 Drizzle.
2015-Mar-01 18:20 170 9 0.9 2.0 Mist.
2015-Mar-01 17:50 170 10 2.7 2.0 Mist.
2015-Mar-01 17:20 170 10 5.4 1.0 Light rain snow.
2015-Mar-01 16:50 170 11 2.7 1.0 Light rain snow.
2015-Mar-01 16:20 160 10 2.7 1.0 Mist.
2015-Mar-01 15:50 150 10 2.3 1.0 Light rain snow.
2015-Mar-01 15:20 160 10 2.0 1.0 Light snow.
2015-Mar-01 14:50 170 11 2.0 1.0 Rain snow.
2015-Mar-01 14:20 160 13 3.8 1.0 Light snow.
2015-Mar-01 13:50 160 12 2.7 1.0 Light snow.
2015-Mar-01 13:20 160 12 1.8 1.0 Snow.
2015-Mar-01 12:50 170 14 1.9 1.0 Snow.
2015-Mar-01 12:20 150 13 3.8 1.0 Light rain snow.
2015-Mar-01 11:50 160 13 4.3 2.0 Light rain.
2015-Mar-01 11:20 160 16 4.3 2.0 Rain.
2015-Mar-01 10:50 160 16 gusting 27 5.4 3.0
2015-Mar-01 10:20 170 15 5.4 3.0
2015-Mar-01 09:50 160 13 5.4 3.0
2015-Mar-01 09:20 160 13 5.4 3.0
2015-Mar-01 08:50 160 12 5.4 3.0
2015-Mar-01 08:20 160 12 5.4 2.0
2015-Mar-01 07:50 160 11 5.4 2.0
2015-Mar-01 07:20 160 10 5.4 1.0